Location: Arbon
(43.0005°N, 0.7472°E)
Time: 02:50:03
(UTC+00:00)

Cosmos 2263 Rocket - Pass Details

Date: 07 August 2020
Orbit: 823 x 849 km, 71.0° (Epoch: 27 September)

Event Time Altitude Azimuth Distance (km) Brightness Sun altitude
Exits shadow 04:05:58 10° 225° (SW) 2,432 4.0 -8.7°
Reaches altitude 10° 04:06:00 10° 225° (SW) 2,423 3.9 -8.7°
Maximum altitude 04:11:21 49° 300° (WNW) 1,062 2.6 -7.9°
Drops below altitude 10° 04:16:44 10° 15° (NNE) 2,431 5.3 -7.0°
Sets 04:19:16 0° 21° (NNE) 3,368 6.2 -6.6°
